Home > Weather > Tirana > Past weeks

Flag for Albania Weather for the Past 2 Weeks in Tirana, Albania

Now
63 °F

Overcast.


Feels Like: 63 °F
Forecast: 58 / 69 °F
Wind: 10 mph from South

Location: Tirana Airport

Current Time: Feb 14, 2016 at 8:02:23 PM

Latest Report: Feb 14, 2016 at 7:20 PM


Visibility: N/A

Pressure: 29.65 "Hg

Humidity: 68%

Dew point: 52 °F

Location of TiranaLocation

Historic Weather in Tirana — Graph

°F

Tirana Temperature Yesterday

Maximum temperature yesterday: 61 °F (at 12:50 PM)
Minimum temperature yesterday: 48 °F (at 6:50 PM)
Average temperature yesterday: 54 °F

High & Low Weather Summary for the Past Weeks

 TemperatureHumidityPressure
High68 °F (Feb 2, 1:20 PM)100% (Feb 12, 4:50 AM)30.45 "Hg (Feb 12, 4:50 AM)
Low30 °F (Feb 6, 6:20 AM)22% (Feb 6, 11:50 AM)29.50 "Hg (Feb 13, 10:20 AM)
Average51 °F69%30.05 "Hg
* Reported Jan 30 6:20 PM — Feb 14 6:50 PM, Tirana, Weather by CustomWeather, © 2016

Note: Actual official high and low records may vary slightly from our data, if they occured in-between our weather recording intervals... More about our weather records

Advertising

Tirana Weather History for the Previous 24 Hours

 ConditionsComfort  
Time TempWeatherWind HumidityBarometerVisibility
6:50 PM
Sun, Feb 14
63 °FMostly cloudy.12 mph68%29.65 "HgN/A
6:20 PM64 °FOvercast.9 mph64%29.65 "HgN/A
5:50 PM64 °FPartly cloudy.8 mph64%29.62 "HgN/A
5:20 PM64 °FPartly cloudy.8 mph64%29.62 "HgN/A
4:50 PM64 °FBroken clouds.9 mph64%29.62 "HgN/A
4:20 PM66 °FBroken clouds.8 mph60%29.62 "HgN/A
3:50 PM66 °FBroken clouds.10 mph56%29.62 "HgN/A
3:20 PM66 °FBroken clouds.9 mph60%29.62 "HgN/A
2:50 PM66 °FBroken clouds.10 mph60%29.62 "HgN/A
2:20 PM64 °FBroken clouds.9 mph64%29.62 "HgN/A
1:50 PM64 °FBroken clouds.12 mph64%29.62 "HgN/A
1:20 PM66 °FBroken clouds.17 mph60%29.65 "HgN/A
12:50 PM66 °FMore clouds than sun.18 mph56%29.65 "HgN/A
12:20 PM68 °FBroken clouds.16 mph53%29.65 "HgN/A
11:50 AM66 °FMostly cloudy.12 mph56%29.65 "HgN/A
11:20 AM66 °FCloudy.13 mph56%29.65 "HgN/A
10:50 AM66 °FPartly sunny.13 mph56%29.65 "HgN/A
10:20 AM66 °FPartly sunny.6 mph56%29.65 "HgN/A
9:50 AM66 °FScattered clouds.7 mph56%29.65 "HgN/A
9:20 AM63 °FPartly sunny.3 mph64%29.68 "HgN/A
8:20 AM59 °FPartly sunny.7 mph72%29.68 "HgN/A
7:50 AM55 °FPartly sunny.6 mph77%29.68 "HgN/A
7:20 AM57 °FPartly sunny.9 mph67%29.68 "HgN/A
6:50 AM57 °FPartly sunny.10 mph63%29.68 "HgN/A
6:20 AM57 °FPartly cloudy.10 mph63%29.65 "HgN/A
5:50 AM54 °FPartly cloudy.7 mph72%29.65 "HgN/A
5:20 AM52 °FPassing clouds.3 mph77%29.65 "HgN/A
4:50 AM52 °FPassing clouds.9 mph77%29.65 "HgN/A
3:50 AM55 °FPartly cloudy.3 mph67%29.65 "HgN/A
3:20 AM57 °FPartly cloudy.6 mph63%29.65 "HgN/A
2:20 AM55 °FPartly cloudy.9 mph72%29.65 "HgN/A
1:50 AM55 °FLight rain. Partly cloudy.8 mph72%29.65 "HgN/A
1:20 AM54 °FPartly cloudy.3 mph82%29.65 "HgN/A
12:50 AM52 °FPassing clouds.7 mph88%29.68 "HgN/A
12:20 AM52 °FPassing clouds.6 mph82%29.68 "HgN/A
11:50 PM
Sat, Feb 13
50 °FPassing clouds.3 mph82%29.68 "HgN/A
11:20 PM50 °FPassing clouds.5 mph82%29.68 "HgN/A
10:20 PM50 °FPassing clouds.3 mph88%29.68 "HgN/A
9:50 PM50 °FPassing clouds.6 mph88%29.68 "HgN/A
9:20 PM48 °FPassing clouds.6 mph94%29.68 "HgN/A
8:50 PM50 °FPassing clouds.6 mph88%29.65 "HgN/A
8:20 PM50 °FPassing clouds.5 mph88%29.65 "HgN/A
Weather by CustomWeather, © 2016

See weather overviewHow to use our weather pages